| time (UTC) | temp F | wind direction | speed MPH | gust MPH | rain 1hr in | rain 24hr in | rain mn in | humidity % | barometer mb |
| 20260906103910 | 56 | 86 | 0.0 | 0.0 | 0.00 | 0.12 | 0.04 | 93 | 1000.7 |
| 20260906103404 | 57 | 86 | 0.0 | 0.0 | 0.00 | 0.12 | 0.04 | 93 | 1000.6 |
| 20260906102858 | 57 | 86 | 0.0 | 0.0 | 0.00 | 0.12 | 0.04 | 93 | 1000.7 |
| 20260906102351 | 56 | 86 | 0.0 | 0.0 | 0.00 | 0.12 | 0.04 | 93 | 1000.7 |
| 20260906101340 | 57 | 86 | 0.0 | 0.0 | 0.01 | 0.12 | 0.04 | 93 | 1000.8 |
| 20260906100328 | 57 | 86 | 0.0 | 0.0 | 0.01 | 0.12 | 0.04 | 93 | 1000.7 |
| 20260906095821 | 57 | 86 | 0.0 | 0.0 | 0.01 | 0.12 | 0.04 | 93 | 1000.5 |
| 20260906095316 | 57 | 86 | 0.0 | 0.0 | 0.01 | 0.12 | 0.04 | 93 | 1000.5 |
| 20260906094810 | 57 | 86 | 0.0 | 0.0 | 0.01 | 0.12 | 0.04 | 93 | 1000.4 |
| 20260906094304 | 57 | 86 | 0.0 | 0.0 | 0.01 | 0.12 | 0.04 | 93 | 1000.4 |
| 20260906093252 | 57 | 86 | 0.0 | 0.0 | 0.01 | 0.12 | 0.04 | 93 | 1000.3 |
| 20260906092746 | 57 | 86 | 0.0 | 0.0 | 0.01 | 0.12 | 0.04 | 93 | 1000.3 |
| 20260906092239 | 57 | 86 | 0.0 | 0.0 | 0.01 | 0.12 | 0.04 | 93 | 1000.3 |
| 20260906091734 | 57 | 86 | 0.0 | 0.0 | 0.00 | 0.11 | 0.03 | 93 | 1000.2 |
| 20260906090722 | 57 | 86 | 0.0 | 0.0 | 0.00 | 0.11 | 0.03 | 93 | 1000.1 |
| 20260906085710 | 57 | 86 | 0.0 | 0.0 | 0.00 | 0.11 | 0.03 | 93 | 1000.0 |
| 20260906085204 | 57 | 86 | 0.0 | 0.0 | 0.00 | 0.11 | 0.03 | 93 | 1000.0 |
| 20260906084658 | 57 | 86 | 0.0 | 0.0 | 0.00 | 0.11 | 0.03 | 92 | 1000.0 |
| 20260906084152 | 57 | 86 | 0.0 | 0.0 | 0.00 | 0.11 | 0.03 | 92 | 999.9 |
| 20260906083646 | 57 | 86 | 0.0 | 0.0 | 0.00 | 0.11 | 0.03 | 92 | 999.9 |
| 20260906082128 | 58 | 86 | 0.0 | 0.0 | 0.01 | 0.11 | 0.03 | 92 | 1000.0 |
| 20260906081622 | 58 | 86 | 0.0 | 0.0 | 0.01 | 0.11 | 0.03 | 92 | 1000.0 |
| 20260906080610 | 58 | 86 | 0.0 | 0.0 | 0.03 | 0.11 | 0.03 | 92 | 999.9 |
| 20260906080104 | 58 | 86 | 0.0 | 0.0 | 0.03 | 0.11 | 0.03 | 92 | 999.8 |
| 20260906075558 | 58 | 86 | 0.0 | 0.0 | 0.03 | 0.11 | 0.03 | 92 | 999.8 |
| 20260906075052 | 58 | 86 | 0.0 | 0.0 | 0.03 | 0.11 | 0.03 | 92 | 999.9 |
| 20260906074040 | 59 | 86 | 0.0 | 0.0 | 0.03 | 0.11 | 0.03 | 92 | 999.9 |
| 20260906072521 | 59 | 86 | 0.0 | 0.0 | 0.03 | 0.11 | 0.03 | 93 | 1000.0 |
| 20260906072016 | 59 | 86 | 0.0 | 0.0 | 0.02 | 0.10 | 0.02 | 93 | 999.9 |
| 20260906071510 | 59 | 86 | 0.0 | 0.0 | 0.02 | 0.10 | 0.02 | 93 | 999.8 |
| 20260906071004 | 59 | 86 | 0.0 | 0.0 | 0.00 | 0.08 | 0.01 | 93 | 999.8 |
| 20260906070458 | 59 | 86 | 0.0 | 0.0 | 0.00 | 0.08 | 0.00 | 93 | 999.8 |
| 20260906065952 | 59 | 86 | 0.0 | 0.0 | 0.00 | 0.08 | 0.00 | 93 | 999.8 |
| 20260906065445 | 59 | 86 | 0.0 | 0.0 | 0.00 | 0.08 | 0.00 | 93 | 999.7 |
| 20260906064940 | 59 | 86 | 0.0 | 0.0 | 0.00 | 0.08 | 0.00 | 93 | 999.6 |
| 20260906064434 | 59 | 86 | 0.0 | 0.0 | 0.00 | 0.08 | 0.00 | 93 | 999.5 |
| 20260906063927 | 59 | 86 | 0.0 | 0.0 | 0.00 | 0.08 | 0.00 | 92 | 999.5 |
| 20260906063422 | 59 | 86 | 0.0 | 0.0 | 0.00 | 0.08 | 0.00 | 92 | 999.4 |
| 20260906062916 | 59 | 86 | 0.0 | 0.0 | 0.00 | 0.08 | 0.00 | 92 | 999.4 |
| 20260906062410 | 59 | 86 | 0.0 | 0.0 | 0.00 | 0.08 | 0.00 | 92 | 999.4 |
| 20260906061905 | 59 | 86 | 0.0 | 0.0 | 0.00 | 0.08 | 0.00 | 92 | 999.4 |
| 20260906061358 | 59 | 86 | 0.0 | 0.0 | 0.00 | 0.08 | 0.00 | 92 | 999.4 |
| 20260906060852 | 60 | 86 | 0.0 | 0.0 | 0.00 | 0.08 | 0.00 | 92 | 999.4 |
| 20260906060346 | 59 | 86 | 0.0 | 0.0 | 0.00 | 0.08 | 0.00 | 92 | 999.4 |
| 20260906055334 | 60 | 86 | 0.0 | 0.0 | 0.00 | 0.08 | 0.00 | 92 | 999.5 |
| 20260906054828 | 60 | 86 | 0.0 | 0.0 | 0.00 | 0.08 | 0.00 | 92 | 999.4 |
| 20260906054322 | 60 | 86 | 0.0 | 0.0 | 0.00 | 0.08 | 0.00 | 92 | 999.4 |
| 20260906053816 | 60 | 86 | 0.0 | 0.0 | 0.00 | 0.08 | 0.00 | 92 | 999.4 |
| 20260906053310 | 60 | 86 | 0.0 | 0.0 | 0.00 | 0.08 | 0.00 | 92 | 999.4 |
| 20260906052804 | 60 | 86 | 0.0 | 0.0 | 0.00 | 0.08 | 0.00 | 92 | 999.4 |
| 20260906052257 | 60 | 86 | 0.0 | 0.0 | 0.00 | 0.08 | 0.00 | 92 | 999.5 |
| 20260906051751 | 60 | 86 | 0.0 | 0.0 | 0.00 | 0.08 | 0.00 | 92 | 999.5 |
| 20260906051246 | 60 | 86 | 0.0 | 0.0 | 0.00 | 0.08 | 0.00 | 92 | 999.5 |
| 20260906050740 | 60 | 86 | 0.0 | 0.0 | 0.00 | 0.08 | 0.00 | 92 | 999.6 |
| 20260906050233 | 60 | 86 | 0.0 | 0.0 | 0.00 | 0.08 | 0.00 | 92 | 999.6 |
| 20260906045221 | 60 | 86 | 0.0 | 0.0 | 0.00 | 0.08 | 0.00 | 92 | 999.7 |
| 20260906044720 | 60 | 86 | 0.0 | 0.0 | 0.00 | 0.08 | 0.00 | 92 | 999.7 |
| 20260906044221 | 60 | 86 | 0.0 | 0.0 | 0.00 | 0.08 | 0.00 | 92 | 999.6 |
| 20260906043217 | 60 | 86 | 0.0 | 0.0 | 0.00 | 0.08 | 0.00 | 92 | 999.6 |
| 20260906042717 | 60 | 86 | 0.0 | 0.0 | 0.00 | 0.08 | 0.00 | 92 | 999.5 |
| 20260906042215 | 60 | 86 | 0.0 | 0.0 | 0.00 | 0.08 | 0.00 | 92 | 999.5 |
| 20260906041716 | 60 | 86 | 0.0 | 0.0 | 0.00 | 0.08 | 0.00 | 92 | 999.5 |
| 20260906041216 | 60 | 86 | 0.0 | 0.0 | 0.00 | 0.08 | 0.00 | 92 | 999.4 |
| 20260906040715 | 60 | 86 | 0.0 | 0.0 | 0.00 | 0.08 | 0.00 | 92 | 999.5 |
| 20260906040217 | 60 | 86 | 0.0 | 0.0 | 0.00 | 0.08 | 0.00 | 92 | 999.5 |
| 20260906035710 | 60 | 86 | 0.0 | 0.0 | 0.00 | 0.08 | 0.08 | 92 | 999.4 |
| 20260906035206 | 60 | 86 | 0.0 | 0.0 | 0.00 | 0.08 | 0.08 | 92 | 999.3 |
| 20260906034204 | 60 | 86 | 0.0 | 0.0 | 0.00 | 0.08 | 0.08 | 92 | 999.4 |
| 20260906033704 | 60 | 86 | 0.0 | 0.0 | 0.00 | 0.08 | 0.08 | 92 | 999.4 |
| 20260906033205 | 60 | 86 | 0.0 | 0.0 | 0.00 | 0.08 | 0.08 | 92 | 999.3 |
| 20260906032706 | 60 | 86 | 0.0 | 0.0 | 0.00 | 0.08 | 0.08 | 92 | 999.2 |
| 20260906032206 | 60 | 86 | 0.0 | 0.0 | 0.00 | 0.08 | 0.08 | 92 | 999.2 |
| 20260906031205 | 60 | 86 | 0.0 | 0.0 | 0.00 | 0.08 | 0.08 | 92 | 999.2 |
| 20260906030704 | 60 | 86 | 0.0 | 0.0 | 0.01 | 0.08 | 0.08 | 92 | 999.1 |
| 20260906025704 | 60 | 86 | 0.0 | 0.0 | 0.01 | 0.08 | 0.08 | 92 | 999.1 |
| 20260906024700 | 61 | 86 | 0.0 | 0.0 | 0.01 | 0.08 | 0.08 | 92 | 999.1 |
| 20260906024201 | 60 | 86 | 0.0 | 0.0 | 0.01 | 0.08 | 0.08 | 91 | 999.2 |
| 20260906023702 | 60 | 86 | 0.0 | 0.0 | 0.01 | 0.08 | 0.08 | 91 | 999.2 |
| 20260906023157 | 61 | 86 | 0.0 | 0.0 | 0.01 | 0.08 | 0.08 | 91 | 999.2 |
| 20260906022656 | 61 | 86 | 0.0 | 0.0 | 0.01 | 0.08 | 0.08 | 91 | 999.3 |
| 20260906022158 | 61 | 86 | 0.0 | 0.0 | 0.02 | 0.08 | 0.08 | 91 | 999.3 |
| 20260906021156 | 61 | 86 | 0.0 | 0.0 | 0.03 | 0.08 | 0.08 | 91 | 999.2 |
| 20260906020656 | 61 | 86 | 0.0 | 0.0 | 0.03 | 0.07 | 0.07 | 91 | 999.2 |
| 20260906020158 | 61 | 86 | 0.0 | 0.0 | 0.04 | 0.07 | 0.07 | 91 | 999.2 |
| 20260906015657 | 61 | 86 | 0.0 | 0.0 | 0.04 | 0.07 | 0.07 | 91 | 999.2 |
| 20260906015158 | 61 | 86 | 0.0 | 0.0 | 0.05 | 0.07 | 0.07 | 91 | 999.2 |
| 20260906014653 | 61 | 86 | 0.0 | 0.0 | 0.05 | 0.07 | 0.07 | 91 | 999.2 |
| 20260906014154 | 61 | 86 | 0.0 | 0.0 | 0.05 | 0.07 | 0.07 | 91 | 999.2 |
| 20260906013654 | 61 | 86 | 0.0 | 0.0 | 0.05 | 0.07 | 0.07 | 91 | 999.2 |
| 20260906013153 | 61 | 86 | 0.0 | 0.0 | 0.05 | 0.07 | 0.07 | 91 | 999.2 |
| 20260906011653 | 61 | 86 | 0.0 | 0.0 | 0.03 | 0.05 | 0.05 | 91 | 999.2 |
| 20260906011152 | 61 | 86 | 0.0 | 0.0 | 0.03 | 0.05 | 0.05 | 90 | 999.2 |
| 20260906010653 | 61 | 86 | 0.0 | 0.0 | 0.02 | 0.04 | 0.04 | 90 | 999.3 |
| 20260906010147 | 62 | 86 | 0.0 | 0.0 | 0.02 | 0.03 | 0.03 | 90 | 999.2 |
| 20260906005641 | 62 | 86 | 0.0 | 0.0 | 0.02 | 0.03 | 0.03 | 90 | 999.2 |
| 20260906005135 | 62 | 86 | 0.0 | 0.0 | 0.01 | 0.02 | 0.02 | 90 | 999.3 |
| 20260906004629 | 62 | 86 | 0.0 | 0.0 | 0.01 | 0.02 | 0.02 | 90 | 999.2 |
| 20260906003617 | 62 | 86 | 0.0 | 0.0 | 0.01 | 0.02 | 0.02 | 90 | 999.0 |
| 20260906003110 | 62 | 86 | 0.0 | 0.0 | 0.02 | 0.02 | 0.02 | 89 | 999.0 |
| 20260906002604 | 62 | 86 | 0.0 | 0.0 | 0.02 | 0.02 | 0.02 | 89 | 999.0 |
| 20260906002059 | 62 | 86 | 0.0 | 0.0 | 0.02 | 0.02 | 0.02 | 89 | 999.0 |
| 20260906001553 | 63 | 86 | 0.0 | 0.0 | 0.02 | 0.02 | 0.02 | 89 | 998.9 |
| 20260906001047 | 63 | 86 | 0.0 | 0.0 | 0.02 | 0.02 | 0.02 | 89 | 998.8 |
| 20260906000541 | 63 | 86 | 0.0 | 0.0 | 0.02 | 0.02 | 0.02 | 88 | 998.8 |
| 20260906000034 | 63 | 86 | 0.0 | 0.0 | 0.01 | 0.01 | 0.01 | 88 | 998.7 |
| 20260905235528 | 64 | 86 | 0.0 | 0.0 | 0.01 | 0.01 | 0.01 | 88 | 998.7 |
| 20260905234517 | 64 | 86 | 0.0 | 0.0 | 0.01 | 0.01 | 0.01 | 87 | 998.5 |
| 20260905234010 | 65 | 86 | 0.0 | 0.0 | 0.01 | 0.01 | 0.01 | 86 | 998.3 |
| 20260905233504 | 65 | 86 | 0.0 | 0.0 | 0.00 | 0.00 | 0.00 | 85 | 998.3 |
| 20260905232959 | 65 | 86 | 0.0 | 0.0 | 0.00 | 0.00 | 0.00 | 84 | 998.2 |
| 20260905232453 | 65 | 86 | 0.0 | 0.0 | 0.00 | 0.00 | 0.00 | 84 | 998.2 |
| 20260905231946 | 65 | 86 | 0.0 | 0.0 | 0.00 | 0.00 | 0.00 | 84 | 998.2 |
| 20260905231440 | 65 | 86 | 0.0 | 0.0 | 0.00 | 0.00 | 0.00 | 83 | 998.1 |
| 20260905230935 | 65 | 86 | 0.0 | 0.0 | 0.00 | 0.00 | 0.00 | 83 | 998.1 |
| 20260905230429 | 66 | 86 | 0.0 | 0.0 | 0.00 | 0.00 | 0.00 | 83 | 998.1 |
| 20260905225922 | 66 | 86 | 0.0 | 0.0 | 0.00 | 0.00 | 0.00 | 82 | 998.0 |
| 20260905225416 | 66 | 86 | 0.0 | 0.0 | 0.00 | 0.00 | 0.00 | 82 | 998.0 |
| 20260905224405 | 67 | 86 | 0.0 | 0.0 | 0.00 | 0.00 | 0.00 | 82 | 997.9 |
| 20260905223858 | 67 | 86 | 0.0 | 0.0 | 0.00 | 0.00 | 0.00 | 83 | 997.9 |
| 20260905223352 | 67 | 86 | 0.0 | 0.0 | 0.00 | 0.00 | 0.00 | 83 | 997.7 |
| 20260905222848 | 67 | 86 | 0.0 | 0.0 | 0.00 | 0.00 | 0.00 | 83 | 997.7 |
| 20260905221835 | 68 | 86 | 0.0 | 0.0 | 0.00 | 0.00 | 0.00 | 81 | 997.6 |
| 20260905221328 | 68 | 86 | 0.0 | 0.0 | 0.00 | 0.00 | 0.00 | 81 | 997.6 |
| 20260905220823 | 68 | 86 | 0.0 | 0.0 | 0.00 | 0.00 | 0.00 | 81 | 997.5 |
| 20260905215810 | 69 | 86 | 0.0 | 0.0 | 0.00 | 0.00 | 0.00 | 78 | 997.5 |
| 20260905214759 | 70 | 86 | 0.0 | 0.0 | 0.00 | 0.00 | 0.00 | 78 | 997.3 |
| 20260905214252 | 70 | 86 | 0.0 | 0.0 | 0.00 | 0.00 | 0.00 | 78 | 997.2 |
| 20260905213746 | 71 | 293 | 0.0 | 0.0 | 0.00 | 0.00 | 0.00 | 80 | 997.1 |
| 20260905213241 | 71 | 293 | 0.0 | 0.0 | 0.00 | 0.00 | 0.00 | 78 | 997.0 |
| 20260905211722 | 71 | 292 | 0.0 | 0.0 | 0.00 | 0.00 | 0.00 | 77 | 996.8 |
| 20260905211217 | 72 | 291 | 0.0 | 0.0 | 0.00 | 0.00 | 0.00 | 77 | 996.7 |
| 20260905210711 | 72 | 291 | 0.0 | 0.0 | 0.00 | 0.00 | 0.00 | 76 | 996.8 |
| 20260905210205 | 72 | 291 | 0.0 | 0.0 | 0.00 | 0.00 | 0.00 | 76 | 996.7 |
| 20260905205659 | 72 | 291 | 0.0 | 0.0 | 0.00 | 0.00 | 0.00 | 76 | 996.6 |
| 20260905205152 | 72 | 326 | 0.0 | 0.0 | 0.00 | 0.00 | 0.00 | 76 | 996.6 |
| 20260905204646 | 72 | 326 | 0.0 | 0.0 | 0.00 | 0.00 | 0.00 | 75 | 996.6 |
| 20260905204140 | 72 | 326 | 0.0 | 0.0 | 0.00 | 0.00 | 0.00 | 75 | 996.5 |
| 20260905202623 | 73 | 326 | 0.0 | 0.0 | 0.00 | 0.00 | 0.00 | 74 | 996.4 |
| 20260905202116 | 73 | 326 | 0.0 | 0.0 | 0.00 | 0.00 | 0.00 | 75 | 996.5 |
| 20260905201610 | 73 | 326 | 0.0 | 0.0 | 0.00 | 0.00 | 0.00 | 74 | 996.3 |
| 20260905201111 | 73 | 326 | 0.0 | 0.0 | 0.00 | 0.00 | 0.00 | 74 | 996.4 |
| 20260905200608 | 73 | 326 | 0.0 | 0.0 | 0.00 | 0.00 | 0.00 | 73 | 996.3 |
| 20260905200105 | 73 | 326 | 0.0 | 0.0 | 0.00 | 0.00 | 0.00 | 71 | 996.2 |
| 20260905195606 | 73 | 321 | 0.0 | 0.0 | 0.00 | 0.00 | 0.00 | 74 | 996.2 |
| 20260905195107 | 73 | 320 | 0.0 | 0.0 | 0.00 | 0.00 | 0.00 | 75 | 996.1 |
| 20260905194604 | 72 | 320 | 0.0 | 0.0 | 0.00 | 0.00 | 0.00 | 74 | 996.2 |
| 20260905194101 | 72 | 278 | 0.0 | 0.0 | 0.00 | 0.00 | 0.00 | 73 | 996.2 |
| 20260905193603 | 72 | 278 | 0.0 | 0.0 | 0.00 | 0.00 | 0.00 | 76 | 996.2 |
| 20260905193102 | 72 | 271 | 0.0 | 0.0 | 0.00 | 0.00 | 0.00 | 76 | 996.2 |
| 20260905192559 | 72 | 270 | 0.0 | 0.0 | 0.00 | 0.00 | 0.00 | 77 | 996.2 |
| 20260905192101 | 72 | 277 | 0.0 | 0.0 | 0.00 | 0.00 | 0.00 | 80 | 996.1 |
| 20260905191601 | 72 | 277 | 0.0 | 0.0 | 0.00 | 0.00 | 0.00 | 81 | 996.1 |
| 20260905191100 | 72 | 277 | 0.0 | 0.0 | 0.00 | 0.00 | 0.00 | 78 | 996.1 |
| 20260905190601 | 72 | 277 | 0.0 | 0.0 | 0.00 | 0.00 | 0.00 | 78 | 996.2 |
| 20260905190058 | 72 | 277 | 0.0 | 0.0 | 0.00 | 0.00 | 0.00 | 76 | 996.1 |
| 20260905185555 | 72 | 277 | 0.0 | 0.0 | 0.00 | 0.00 | 0.00 | 78 | 996.2 |
| 20260905185057 | 72 | 277 | 0.0 | 0.0 | 0.00 | 0.00 | 0.00 | 77 | 996.2 |
| 20260905184552 | 72 | 277 | 0.0 | 0.0 | 0.00 | 0.00 | 0.00 | 78 | 996.1 |
| 20260905184052 | 72 | 277 | 0.0 | 0.0 | 0.00 | 0.00 | 0.00 | 77 | 996.1 |
| 20260905183552 | 72 | 276 | 0.0 | 0.0 | 0.00 | 0.00 | 0.00 | 75 | 996.1 |
| 20260905182552 | 72 | 276 | 0.0 | 0.0 | 0.00 | 0.00 | 0.00 | 79 | 996.0 |
| 20260905181553 | 72 | 248 | 0.0 | 0.0 | 0.00 | 0.00 | 0.00 | 77 | 996.0 |
| 20260905181051 | 72 | 345 | 0.0 | 0.0 | 0.00 | 0.00 | 0.00 | 77 | 996.0 |
| 20260905180553 | 72 | 345 | 0.0 | 0.0 | 0.00 | 0.00 | 0.00 | 76 | 996.1 |
| 20260905180051 | 72 | 345 | 0.0 | 0.0 | 0.00 | 0.00 | 0.00 | 78 | 996.1 |
| 20260905175552 | 72 | 345 | 0.0 | 0.0 | 0.00 | 0.00 | 0.00 | 78 | 996.1 |
| 20260905175051 | 71 | 345 | 0.0 | 0.0 | 0.00 | 0.00 | 0.00 | 78 | 996.0 |
| 20260905174551 | 71 | 345 | 0.0 | 0.0 | 0.00 | 0.00 | 0.00 | 80 | 996.0 |
| 20260905174051 | 71 | 345 | 0.0 | 0.0 | 0.00 | 0.00 | 0.00 | 83 | 996.1 |
| 20260905173551 | 71 | 344 | 0.0 | 0.0 | 0.00 | 0.00 | 0.00 | 83 | 996.0 |
| 20260905173054 | 70 | 345 | 0.0 | 0.0 | 0.00 | 0.00 | 0.00 | 83 | 996.0 |
| 20260905172552 | 70 | 344 | 0.0 | 0.0 | 0.00 | 0.00 | 0.00 | 83 | 996.0 |
| 20260905172050 | 70 | 344 | 0.0 | 0.0 | 0.00 | 0.00 | 0.00 | 82 | 995.9 |
| 20260905171544 | 70 | 344 | 0.0 | 0.0 | 0.00 | 0.00 | 0.00 | 79 | 996.0 |
| 20260905171039 | 70 | 344 | 0.0 | 0.0 | 0.00 | 0.00 | 0.00 | 83 | 995.9 |
| 20260905170533 | 70 | 344 | 0.0 | 0.0 | 0.00 | 0.00 | 0.00 | 82 | 995.9 |
| 20260905170027 | 69 | 344 | 0.0 | 0.0 | 0.00 | 0.00 | 0.00 | 82 | 996.0 |
| 20260905165521 | 69 | 344 | 0.0 | 0.0 | 0.00 | 0.00 | 0.00 | 83 | 996.0 |
| 20260905163457 | 69 | 336 | 0.0 | 0.0 | 0.00 | 0.00 | 0.00 | 83 | 996.1 |
| 20260905162950 | 69 | 336 | 0.0 | 0.0 | 0.00 | 0.00 | 0.00 | 84 | 996.1 |
| 20260905162445 | 69 | 333 | 0.0 | 0.0 | 0.00 | 0.00 | 0.00 | 84 | 996.0 |
| 20260905161939 | 70 | 333 | 0.0 | 0.0 | 0.00 | 0.00 | 0.00 | 84 | 996.1 |
| 20260905161433 | 70 | 333 | 0.0 | 0.0 | 0.00 | 0.00 | 0.00 | 83 | 996.1 |
| 20260905160927 | 70 | 333 | 0.0 | 0.0 | 0.00 | 0.00 | 0.00 | 81 | 996.1 |
| 20260905160421 | 70 | 333 | 0.0 | 0.0 | 0.00 | 0.00 | 0.00 | 80 | 996.1 |
| 20260905155915 | 70 | 333 | 0.0 | 0.0 | 0.00 | 0.00 | 0.00 | 79 | 996.1 |
| 20260905155409 | 70 | 335 | 0.0 | 0.0 | 0.00 | 0.00 | 0.00 | 80 | 996.1 |
| 20260905154902 | 70 | 333 | 0.0 | 0.0 | 0.00 | 0.00 | 0.00 | 80 | 996.1 |
| 20260905154357 | 70 | 333 | 0.0 | 0.0 | 0.00 | 0.00 | 0.00 | 81 | 996.1 |
| 20260905152839 | 68 | 73 | 0.0 | 0.0 | 0.00 | 0.00 | 0.00 | 81 | 996.2 |
| 20260905152332 | 68 | 123 | 0.0 | 0.0 | 0.00 | 0.00 | 0.00 | 84 | 996.2 |
| 20260905151827 | 68 | 123 | 0.0 | 0.0 | 0.00 | 0.00 | 0.00 | 86 | 996.2 |
| 20260905151320 | 68 | 123 | 0.0 | 0.0 | 0.00 | 0.00 | 0.00 | 84 | 996.2 |
| 20260905150309 | 68 | 123 | 0.0 | 0.0 | 0.00 | 0.00 | 0.00 | 85 | 996.2 |
| 20260905145803 | 68 | 123 | 0.0 | 0.0 | 0.00 | 0.00 | 0.00 | 85 | 996.1 |
| 20260905145257 | 68 | 123 | 0.0 | 0.0 | 0.00 | 0.00 | 0.00 | 85 | 996.1 |
| 20260905144245 | 68 | 123 | 0.0 | 0.0 | 0.00 | 0.00 | 0.00 | 86 | 996.2 |
| 20260905143739 | 68 | 123 | 0.0 | 0.0 | 0.00 | 0.00 | 0.00 | 87 | 996.2 |
| 20260905143233 | 68 | 123 | 0.0 | 0.0 | 0.00 | 0.00 | 0.00 | 86 | 996.2 |
| 20260905142221 | 68 | 123 | 0.0 | 0.0 | 0.00 | 0.00 | 0.00 | 86 | 996.2 |
| 20260905141715 | 67 | 123 | 0.0 | 0.0 | 0.00 | 0.00 | 0.00 | 87 | 996.1 |
| 20260905141209 | 67 | 123 | 0.0 | 0.0 | 0.00 | 0.00 | 0.00 | 88 | 996.2 |
| 20260905140703 | 67 | 123 | 0.0 | 0.0 | 0.00 | 0.00 | 0.00 | 88 | 996.1 |
| 20260905140157 | 67 | 123 | 0.0 | 0.0 | 0.00 | 0.00 | 0.00 | 88 | 996.1 |
| 20260905135651 | 67 | 123 | 0.0 | 0.0 | 0.00 | 0.00 | 0.00 | 87 | 996.1 |
| 20260905135145 | 66 | 123 | 0.0 | 0.0 | 0.00 | 0.00 | 0.00 | 88 | 996.1 |
| 20260905134639 | 66 | 123 | 0.0 | 0.0 | 0.00 | 0.00 | 0.00 | 88 | 996.1 |
| 20260905133627 | 65 | 123 | 0.0 | 0.0 | 0.00 | 0.00 | 0.00 | 89 | 996.0 |
| 20260905133120 | 65 | 123 | 0.0 | 0.0 | 0.00 | 0.00 | 0.00 | 89 | 995.9 |
| 20260905132614 | 65 | 123 | 0.0 | 0.0 | 0.00 | 0.00 | 0.00 | 89 | 995.9 |
| 20260905132109 | 64 | 123 | 0.0 | 0.0 | 0.00 | 0.00 | 0.00 | 89 | 995.9 |
| 20260905131602 | 64 | 123 | 0.0 | 0.0 | 0.00 | 0.00 | 0.00 | 89 | 995.8 |
| 20260905131057 | 64 | 123 | 0.0 | 0.0 | 0.00 | 0.00 | 0.00 | 90 | 995.8 |
| 20260905130045 | 63 | 123 | 0.0 | 0.0 | 0.00 | 0.00 | 0.00 | 90 | 995.8 |
| 20260905125538 | 63 | 120 | 0.0 | 0.0 | 0.00 | 0.00 | 0.00 | 91 | 995.8 |
| 20260905124527 | 62 | 121 | 0.0 | 0.0 | 0.00 | 0.00 | 0.00 | 92 | 995.8 |
| 20260905124021 | 62 | 120 | 0.0 | 0.0 | 0.00 | 0.00 | 0.00 | 92 | 995.7 |
| 20260905123514 | 61 | 120 | 0.0 | 0.0 | 0.00 | 0.00 | 0.00 | 92 | 995.7 |
| 20260905123009 | 61 | 120 | 0.0 | 0.0 | 0.00 | 0.00 | 0.00 | 92 | 995.7 |
| 20260905122002 | 61 | 139 | 0.0 | 0.0 | 0.00 | 0.00 | 0.00 | 92 | 995.6 |
| 20260905121001 | 60 | 139 | 0.0 | 0.0 | 0.00 | 0.00 | 0.00 | 92 | 995.6 |
| 20260905120459 | 60 | 139 | 0.0 | 0.0 | 0.00 | 0.00 | 0.00 | 92 | 995.5 |
| 20260905114957 | 60 | 139 | 0.0 | 0.0 | 0.00 | 0.00 | 0.00 | 92 | 995.5 |
| 20260905114458 | 60 | 139 | 0.0 | 0.0 | 0.00 | 0.00 | 0.00 | 92 | 995.5 |
| 20260905113957 | 60 | 139 | 0.0 | 0.0 | 0.00 | 0.00 | 0.00 | 92 | 995.5 |
| 20260905113456 | 60 | 139 | 0.0 | 0.0 | 0.00 | 0.00 | 0.00 | 92 | 995.5 |
| 20260905112957 | 59 | 139 | 0.0 | 0.0 | 0.00 | 0.00 | 0.00 | 92 | 995.4 |
| 20260905112457 | 59 | 139 | 0.0 | 0.0 | 0.00 | 0.00 | 0.00 | 92 | 995.4 |
| 20260905111956 | 59 | 139 | 0.0 | 0.0 | 0.00 | 0.00 | 0.00 | 92 | 995.3 |
| 20260905111457 | 59 | 139 | 0.0 | 0.0 | 0.00 | 0.00 | 0.00 | 92 | 995.3 |
| 20260905110958 | 59 | 139 | 0.0 | 0.0 | 0.00 | 0.00 | 0.00 | 92 | 995.3 |
| 20260905110453 | 59 | 139 | 0.0 | 0.0 | 0.00 | 0.00 | 0.00 | 92 | 995.3 |
| 20260905105953 | 58 | 139 | 0.0 | 0.0 | 0.00 | 0.00 | 0.00 | 92 | 995.3 |
| 20260905105454 | 58 | 139 | 0.0 | 0.0 | 0.00 | 0.00 | 0.00 | 92 | 995.2 |
| 20260905104954 | 58 | 139 | 0.0 | 0.0 | 0.00 | 0.00 | 0.00 | 92 | 995.2 |
| 20260905104454 | 58 | 139 | 0.0 | 0.0 | 0.00 | 0.00 | 0.00 | 92 | 995.2 |